Other Public Products
Issued by NWS Charleston, SC

Current Version | Previous Version | Graphics & Text | Print | Product List | Glossary On
Versions: 1 2 3 4 5 6 7 8 9 10 11 12 13 14 15 16 17 18 19 20 21 22 23 24 25 26 27 28 29 30 31 32 33 34 35 36 37 38 39 40 41 42 43 44 45 46 47 48 49 50
000 FPUS82 KCHS 182038 OPUCHS TEST...KCHS/KSAV Gateway Observations...TEST National Weather Service Charleston SC 400 PM EDT MON SEP 18 2017 NOTE: "fair" indicates few or no clouds below 12,000 feet with no significant weather and/or obstructions to visibility. SCZ050-WAZ558-NCZ071-TXZ119-213-PAZ071-DCZ001-FLZ074-172-MI076- NYZ176-178-MAZ016-IL014-TNZ027-NJZ106-GAZ044-MD014-182100- ...Gateway Observations for Charleston International... CITY SKY/WX TMP DP RH WIND PRES REMARKS Chas Airport MOSUNNY 87 63 44 N15 29.95F Seattle PTSUNNY 58 46 64 SW17 29.77F Charlotte MOSUNNY 86 64 47 CALM 30.00F Dallas DFW MOSUNNY 92 62 36 SW5 29.94F HX 92 Dallas Love MOSUNNY 92 60 34 SW7 29.94F HX 91 Philladelphia PTSUNNY 77 67 71 NE12 30.05F Wash National CLOUDY 75 69 81 NE12 30.06F Baltimore PTSUNNY 72 71 97 VRB6 30.05F Miami MOSUNNY 91 71 51 NW8 29.88F HX 97 Detroit CLOUDY 71 67 87 NE8 30.06S Newark CLOUDY 74 66 76 NE8 30.09S Laguardia CLOUDY 72 67 84 NE13 30.09F J F K CLOUDY 74 67 78 NE9 30.09F Boston Logan CLOUDY 66 65 96 E8 30.16F FOG Ft. Lauderdale MOSUNNY 90 73 57 W7 29.87F HX 98 Chicago O`Hare MOSUNNY 75 52 44 E7 30.05F Chicago Midway MOSUNNY 74 55 51 NE9 30.05F Houston Bush TSTM 81 76 84 CALM 29.97F Houston Hobby CLOUDY 91 76 61 S8 29.95F HX 103 Nashville PTSUNNY 87 65 47 NE3 30.01F Atlanta MOSUNNY 87 60 40 W7 30.03F $$ GAZ044-118-TXZ119-213-NCZ071-DCZ001-MDZ014-506-PAZ021-071-NJZ106- NYZ176-178-MAZ106-OHZ011-021-055-MIZ076-KYZ091-ILZ014-INZ047- MNZ060-ONZ431-182100- ...Gateway Observations for Savannah International... CITY SKY/WX TMP DP RH WIND PRES REMARKS Savannah Arpt MOSUNNY 90 65 43 N8 29.96F HX 92 Atlanta MOSUNNY 87 60 40 W7 30.03F Charlotte MOSUNNY 86 64 47 CALM 30.00F Dallas DFW MOSUNNY 92 62 36 SW5 29.94F HX 92 Houston Bush TSTM 81 76 84 CALM 29.97F Wash National CLOUDY 75 69 81 NE12 30.06F Wash Dulles PTSUNNY 79 66 64 NE7 30.05F Baltimore PTSUNNY 72 71 97 VRB6 30.05F Philadelphia PTSUNNY 77 67 71 NE12 30.05F Newark CLOUDY 74 66 76 NE8 30.09S Laguardia CLOUDY 72 67 84 NE13 30.09F J F K CLOUDY 74 67 78 NE9 30.09F Boston CLOUDY 66 65 96 E8 30.16F FOG Pittsburg CLOUDY 81 63 54 SW5 30.06F Akron PTSUNNY 84 59 42 CALM 30.06F Cleveland PTSUNNY 86 62 44 N12 30.06S Cincinnati CLOUDY 80 68 66 SW5 30.03F Columbus PTSUNNY 81 58 45 CALM 30.03S Detroit CLOUDY 71 67 87 NE8 30.06S Chicago O`Hare MOSUNNY 75 52 44 E7 30.05F Minneapolis LGT RAIN 56 55 97 SE13 30.00F Indianapolis CLOUDY 81 68 64 S7 30.00F Toronto Canada PTSUNNY 81 66 61 S8 30.02F $$

USA.gov is the U.S. government's official web portal to all federal, state and local government web resources and services.